TimeCDT,TemperatureF,Dew PointF,Humidity,Sea Level PressureIn,VisibilityMPH,Wind Direction,Wind SpeedMPH,Gust SpeedMPH,PrecipitationIn,Events,Conditions,WindDirDegrees,DateUTC
12:17 AM,71.6,66.2,83,29.87,10.0,North,9.2,-,N/A,,Overcast,10,2013-08-31 05:17:00
12:39 AM,71.6,66.2,83,29.86,10.0,North,9.2,-,N/A,,Overcast,10,2013-08-31 05:39:00
12:52 AM,71.1,66.0,84,29.85,10.0,NNE,9.2,-,N/A,,Overcast,20,2013-08-31 05:52:00
1:50 AM,71.6,66.2,83,29.86,10.0,NNE,6.9,-,N/A,,Scattered Clouds,30,2013-08-31 06:50:00
1:52 AM,71.1,64.9,81,29.84,10.0,NNE,6.9,-,N/A,,Partly Cloudy,30,2013-08-31 06:52:00
2:52 AM,71.1,64.9,81,29.84,10.0,Calm,Calm,-,N/A,,Partly Cloudy,0,2013-08-31 07:52:00
3:52 AM,71.1,64.9,81,29.84,10.0,NE,3.5,-,N/A,,Mostly Cloudy,50,2013-08-31 08:52:00
4:52 AM,72.0,66.0,81,29.85,10.0,Variable,4.6,-,N/A,,Overcast,0,2013-08-31 09:52:00
5:16 AM,71.6,66.2,83,29.88,10.0,NNE,3.5,-,N/A,Thunderstorm,Overcast,20,2013-08-31 10:16:00
5:25 AM,71.6,66.2,83,29.88,10.0,NNE,5.8,-,N/A,,Overcast,30,2013-08-31 10:25:00
5:43 AM,71.6,66.2,83,29.87,10.0,ENE,4.6,-,0.01,Rain,Light Rain,70,2013-08-31 10:43:00
5:52 AM,71.1,66.0,84,29.86,4.0,ENE,5.8,-,0.08,Rain-Thunderstorm,Light Thunderstorms and Rain,70,2013-08-31 10:52:00
5:56 AM,71.6,66.2,83,29.87,2.0,SE,3.5,-,0.03,Rain-Thunderstorm,Heavy Thunderstorms and Rain,130,2013-08-31 10:56:00
6:08 AM,71.6,66.2,83,29.87,8.0,Variable,5.8,-,0.03,Rain-Thunderstorm,Light Thunderstorms and Rain,0,2013-08-31 11:08:00
6:43 AM,71.6,66.2,83,29.86,10.0,Calm,Calm,-,0.03,Thunderstorm,Scattered Clouds,0,2013-08-31 11:43:00
6:52 AM,71.1,68.0,90,29.86,10.0,Calm,Calm,-,0.03,Thunderstorm,Partly Cloudy,0,2013-08-31 11:52:00
7:04 AM,71.6,68.0,88,29.87,10.0,Calm,Calm,-,N/A,,Partly Cloudy,0,2013-08-31 12:04:00
7:33 AM,71.6,66.2,83,29.87,10.0,Calm,Calm,-,N/A,,Overcast,0,2013-08-31 12:33:00
7:52 AM,72.0,66.9,84,29.86,10.0,South,3.5,-,N/A,,Overcast,180,2013-08-31 12:52:00
8:52 AM,73.9,66.9,79,29.85,10.0,ENE,5.8,-,N/A,,Overcast,70,2013-08-31 13:52:00
9:06 AM,73.4,68.0,83,29.88,10.0,Calm,Calm,-,N/A,,Overcast,0,2013-08-31 14:06:00
9:33 AM,73.4,66.2,78,29.89,10.0,Calm,Calm,-,N/A,Thunderstorm,Overcast,0,2013-08-31 14:33:00
9:50 AM,73.4,66.2,78,29.87,10.0,SE,3.5,-,N/A,,Overcast,140,2013-08-31 14:50:00
9:52 AM,73.9,66.9,79,29.86,10.0,SE,4.6,-,N/A,,Overcast,130,2013-08-31 14:52:00
10:49 AM,73.4,68.0,83,29.87,10.0,East,5.8,-,0.00,Thunderstorm,Overcast,80,2013-08-31 15:49:00
10:52 AM,73.0,68.0,84,29.85,10.0,East,5.8,-,0.00,Thunderstorm,Overcast,80,2013-08-31 15:52:00
11:02 AM,73.4,68.0,83,29.86,10.0,East,5.8,-,N/A,,Overcast,100,2013-08-31 16:02:00
11:23 AM,71.6,68.0,88,29.87,9.0,Variable,4.6,-,0.03,Rain-Thunderstorm,Light Thunderstorms and Rain,0,2013-08-31 16:23:00
11:34 AM,73.4,66.2,78,29.88,10.0,Calm,Calm,-,0.03,,Mostly Cloudy,0,2013-08-31 16:34:00
11:52 AM,73.0,66.9,81,29.88,10.0,South,3.5,-,0.03,,Overcast,170,2013-08-31 16:52:00
12:38 PM,75.2,68.0,78,29.85,10.0,ENE,9.2,-,N/A,,Scattered Clouds,60,2013-08-31 17:38:00
12:52 PM,75.9,68.0,76,29.85,10.0,Variable,6.9,-,N/A,,Partly Cloudy,0,2013-08-31 17:52:00
1:13 PM,75.2,68.0,78,29.86,10.0,East,4.6,-,N/A,,Mostly Cloudy,80,2013-08-31 18:13:00
1:52 PM,77.0,68.0,74,29.84,10.0,ENE,8.1,-,N/A,,Overcast,70,2013-08-31 18:52:00
2:52 PM,75.9,66.9,74,29.83,9.0,East,5.8,-,N/A,,Overcast,80,2013-08-31 19:52:00
3:52 PM,75.9,66.0,71,29.83,10.0,NE,6.9,-,N/A,,Overcast,40,2013-08-31 20:52:00
4:32 PM,75.2,64.4,69,29.84,10.0,ENE,4.6,-,N/A,,Overcast,60,2013-08-31 21:32:00
4:52 PM,73.9,66.0,76,29.82,10.0,ENE,6.9,-,N/A,,Overcast,60,2013-08-31 21:52:00
5:52 PM,73.9,64.0,71,29.82,10.0,NE,3.5,-,N/A,,Overcast,50,2013-08-31 22:52:00
6:52 PM,73.9,64.0,71,29.80,10.0,NE,5.8,-,N/A,,Overcast,40,2013-08-31 23:52:00
7:52 PM,73.0,64.9,76,29.82,10.0,NE,5.8,-,N/A,,Overcast,40,2013-09-01 00:52:00
8:52 PM,73.0,66.0,79,29.83,10.0,ENE,3.5,-,N/A,,Overcast,60,2013-09-01 01:52:00
9:52 PM,72.0,66.0,81,29.85,10.0,North,3.5,-,N/A,,Mostly Cloudy,350,2013-09-01 02:52:00
10:52 PM,72.0,66.0,81,29.85,10.0,NNE,4.6,-,N/A,,Overcast,20,2013-09-01 03:52:00
11:52 PM,72.0,66.0,81,29.84,10.0,NNE,3.5,-,N/A,,Overcast,30,2013-09-01 04:52:00